Location: Krakow
(50.0830°N, 19.9170°E)
Time: 17:02:13
(UTC+02:00)

Courier 1B - Pass Details

Date: 20 March 2026
Orbit: 962 x 1209 km, 28.3° (Epoch: 19 April)

Event Time Altitude Azimuth Distance (km) Brightness Sun altitude
Rises 10:04:56 0° 236° (WSW) 3,975 10.7 35.2°
Reaches altitude 10° 10:10:49 10° 201° (SSW) 2,940 10.6 35.7°
Maximum altitude 10:12:09 11° 190° (S) 2,880 10.8 35.8°
Drops below altitude 10° 10:13:28 10° 179° (S) 2,904 11.0 35.9°
Sets 10:19:04 0° 143° (SE) 3,781 11.5 36.4°
